Location: Brown Observing Site
(43.4354°N, 116.3366°W)
Time: 05:53:04
(UTC-07:00)

Envisat - Pass Details

Date: 30 October 2019
Orbit: 764 x 766 km, 98.1° (Epoch: 19 November)

Event Time Altitude Azimuth Distance (km) Brightness Sun altitude
Rises 07:23:49 0° 31° (NNE) 3,238 6.5 -10.4°
Reaches altitude 10° 07:27:04 10° 53° (NE) 2,306 6.1 -9.8°
Maximum altitude 07:30:07 16° 90° (E) 1,921 6.4 -9.2°
Drops below altitude 10° 07:33:09 10° 127° (SE) 2,295 6.6 -8.7°
Sets 07:36:22 0° 149° (SSE) 3,215 6.9 -8.1°
